{"data":{"norad_id":59675,"intl_designator":"2024-084X","name":"STARLINK-31877","alt_names":[],"object_type":"PAYLOAD","status":"ACTIVE","operator":null,"country":"US","launch_date":"2024-05-06","launch_site_code":"AFETR","launch_vehicle":null,"mission":null,"orbit_class":"UNKNOWN","rcs_meters":null,"size_class":null,"mass_kg":null,"dimensions":null,"purposes":["comms"],"wikipedia_slug":null,"has_3d_model":false,"image_url":null,"decayed_at":null,"tle_current":{"epoch":"2026-05-25T04:53:48.316416Z","epoch_age_seconds":51382,"freshness":"FRESH","line1":"1 59675U 24084X   26145.20403144  .00002028  00000+0  83165-4 0  9994","line2":"2 59675  43.0049 329.7982 0000565 328.8084  31.2734 15.27583922116072","mean_motion":15.27583922,"eccentricity":5.65e-5,"inclination_deg":43.0049,"raan_deg":329.7982,"arg_perigee_deg":328.8084,"mean_anomaly_deg":31.2734,"bstar":8.3165e-5,"rev_number":11607,"period_min":94.2665066882,"perigee_km":482.64969583495,"apogee_km":483.42500853674,"semimajor_km":6861.1743521858,"source":"CELESTRAK","updated_at":"2026-05-25T13:38:19.022208Z"}}}